Weather History for Defiance, OH

Change the Weather History Date:

Wednesday, July 24, 2013

  Actual Average Record
Temperature  
Mean Temperature 62 °F -  
Max Temperature 73 °F 84 °F 101 °F (1940)
Min Temperature 53 °F 61 °F 50 °F (1981)
Degree Days  
Heating Degree Days 2    
Growing Degree Days 12 (Base 50)    
Moisture  
Dew Point 51 °F    
Average Humidity 66    
Maximum Humidity 87    
Minimum Humidity 49    
Precipitation  
Precipitation 0.00 in - - ()
Sea Level Pressure  
Sea Level Pressure 29.99 in    
Wind  
Wind Speed 8 mph (NNE)    
Max Wind Speed 15 mph    
Max Gust Speed 22 mph    
Visibility 10 miles    
Events      
Averages and records for this station are not official NWS values.
T = Trace of Precipitation, MM = Missing Value Source: NWS Daily Summary

Daily Weather History Graph

Daily Weather History Graph

Search for Another Location

Airport:

Trip Planner

Search our weather history database for the weather conditions in past years. The results will help you decide how hot, cold, wet, or windy it might be!

Date:

Astronomy

Jul. 24, 2013 Rise Set
Actual Time 6:25 AM EDT 9:02 PM EDT
Civil Twilight 5:53 AM EDT 9:34 PM EDT
Nautical Twilight 5:13 AM EDT 10:13 PM EDT
Astronomical Twilight 4:28 AM EDT 10:58 PM EDT
Moon 10:05 PM EDT (7/24) 8:46 AM EDT (7/24)
Length of Visible Light 15h 40m
Length of Day
14h 36m
Waning Gibbous, 95% of the Moon is Illuminated
Jul 24
Waning Gibbous
Jul 29
Last Quarter
Aug 6
New
Aug 14
First Quarter
Aug 20
Full

Hourly Weather History & Observations

Time (EDT) Temp. Dew Point Humidity Pressure Visibility Wind Dir Wind Speed Gust Speed Precip Events Conditions
12:53 AM 62.1 °F 52.0 °F 70% 29.90 in 10.0 mi North 15.0 mph 21.9 mph N/A   Clear
1:53 AM 59.0 °F 50.0 °F 72% 29.91 in 10.0 mi North 8.1 mph - N/A   Clear
2:53 AM 57.0 °F 50.0 °F 77% 29.91 in 10.0 mi North 8.1 mph - N/A   Clear
3:53 AM 55.9 °F 48.9 °F 77% 29.91 in 10.0 mi North 5.8 mph - N/A   Clear
4:53 AM 54.0 °F 48.9 °F 83% 29.92 in 10.0 mi North 4.6 mph - N/A   Clear
5:53 AM 53.1 °F 48.9 °F 86% 29.94 in 10.0 mi North 6.9 mph - N/A   Clear
6:53 AM 54.0 °F 48.9 °F 83% 29.96 in 10.0 mi North 8.1 mph - N/A   Clear
7:53 AM 57.0 °F 50.0 °F 77% 29.99 in 10.0 mi North 6.9 mph - N/A   Clear
8:53 AM 60.1 °F 50.0 °F 69% 30.00 in 10.0 mi NNE 10.4 mph - N/A   Clear
9:53 AM 63.0 °F 50.0 °F 63% 30.00 in 10.0 mi NNE 11.5 mph - N/A   Clear
10:53 AM 66.0 °F 51.1 °F 59% 30.01 in 10.0 mi North 9.2 mph - N/A   Clear
11:53 AM 66.9 °F 51.1 °F 57% 30.02 in 10.0 mi Variable 5.8 mph - N/A   Mostly Cloudy
12:53 PM 66.9 °F 51.1 °F 57% 30.04 in 10.0 mi NNE 6.9 mph - N/A   Mostly Cloudy
1:53 PM 70.0 °F 51.1 °F 51% 30.03 in 10.0 mi ENE 6.9 mph - N/A   Scattered Clouds
2:53 PM 71.1 °F 52.0 °F 51% 30.01 in 10.0 mi NNE 9.2 mph - N/A   Clear
3:53 PM 72.0 °F 52.0 °F 49% 30.01 in 10.0 mi NNE 5.8 mph - N/A   Partly Cloudy
4:53 PM 71.1 °F 52.0 °F 51% 30.01 in 10.0 mi East 6.9 mph 17.3 mph N/A   Mostly Cloudy
5:53 PM 71.1 °F 51.1 °F 49% 30.01 in 10.0 mi ENE 4.6 mph - N/A   Mostly Cloudy
6:53 PM 71.1 °F 52.0 °F 51% 30.01 in 10.0 mi East 4.6 mph - N/A   Mostly Cloudy
7:53 PM 70.0 °F 52.0 °F 53% 30.01 in 10.0 mi ENE 4.6 mph - N/A   Mostly Cloudy
8:53 PM 66.0 °F 53.1 °F 63% 30.03 in 10.0 mi SE 3.5 mph - N/A   Clear
9:53 PM 63.0 °F 54.0 °F 72% 30.04 in 10.0 mi Calm Calm - N/A   Clear
10:53 PM 60.1 °F 54.0 °F 80% 30.04 in 10.0 mi Calm Calm - N/A   Clear
11:53 PM 57.9 °F 54.0 °F 87% 30.05 in 10.0 mi Calm Calm - N/A   Clear